Wind_Speed
55 56 57 57 59 60 62 64 64 63 63 62 61 60 60 60 60 59 57 59 61 62 63 63 63 63 63 63 63 63 64 64 63 59 56 55 54 54 54 56 56 57 58
58 57 56 57 57 57 56 56 57 58 58 59 60 59 60 61 62 63 63 62 62 61 62 62 62 62 63 64 65 67 66 67 71 72 70 67 66 66 66 66 66 67 68
56 57 61 61 59 57 59 61 61 61 62 63 64 64 65 65 66 67 69 69 68 68 69 69 68 68 68 69 69 69 69 70 70 71 72 70 67 65 66 70 72 74 76
67 68 69 68 68 71 72 71 72 72 72 71 70 71 71 71 72 73 73 73 75 75 76 76 77 79 79 79 79 79 78 76 75 75 77 79 78 76 71 70 71 70 72
73 74 76 76 75 76 76 78 80 79 80 80 80 82 81 81 82 81 80 80 82 84 85 85 85 86 85 86 86 88 88 88 88 86 85 85 86 85 84 82 83 81 80
80 83 84 83 82 83 85 86 88 90 91 91 91 90 91 91 92 93 92 91 92 92 93 93 94 95 95 94 96 96 97 97 97 98 97 96 95 94 91 90 89 89 90
92 93 93 94 93 94 94 94 96 97 98 99 100 100 99 101 102 101 99 98 99 100 100 101 102 105 105 105 105 104 105 105 105 106 106 106 105 105 103 101 99 99 95
99 100 102 104 103 105 107 106 105 105 105 105 107 108 109 111 110 108 108 107 108 109 110 111 111 114 114 113 113 115 114 111 111 111 110 111 109 109 108 108 108 108 105
110 111 113 114 114 115 115 115 116 117 116 117 119 122 122 123 123 120 119 118 118 118 120 119 120 122 125 123 119 116 114 114 115 113 113 115 116 116 116 115 114 114 113
117 119 120 122 123 123 125 125 127 128 127 128 129 130 129 124 123 126 129 125 123 126 127 124 121 122 124 122 119 116 114 116 114 113 113 115 118 121 122 122 122 120 118
125 125 128 129 131 134 134 134 134 134 135 134 133 131 131 129 131 130 129 127 126 123 121 121 123 124 122 120 120 118 117 115 116 117 119 120 120 121 123 124 123 123 121
128 129 130 130 133 136 137 138 140 140 140 137 134 132 129 130 129 127 125 121 121 119 121 124 124 122 121 119 117 117 118 118 118 119 118 119 121 123 123 123 124 122 116
133 135 136 136 136 137 139 140 139 138 136 133 133 131 129 126 124 125 126 122 116 112 112 113 110 110 111 113 115 113 113 113 113 114 115 115 118 117 115 116 114 108 103
137 138 138 135 130 128 129 130 129 129 126 122 120 118 117 116 117 116 115 109 105 104 101 96 96 99 100 101 102 104 103 103 105 107 110 108 108 110 107 105 101 101 94
124 122 122 122 121 119 119 118 116 115 115 113 112 109 107 107 109 108 104 104 98 97 95 92 91 94 95 95 96 98 100 101 101 101 99 99 99 98 95 95 94 90 85
119 118 117 117 116 114 110 108 109 107 105 104 101 99 99 98 100 99 95 93 91 89 88 89 89 89 88 88 90 90 90 90 89 88 88 88 86 86 84 82 81 81 78
110 109 108 108 108 107 106 100 94 95 94 93 96 95 90 88 90 89 87 85 82 82 81 81 80 82 81 80 80 78 79 80 79 79 78 79 78 76 75 73 74 74 72
104 102 98 95 93 92 89 87 86 84 84 86 84 82 82 79 78 78 79 77 76 74 74 73 72 72 73 74 73 72 73 75 75 74 71 68 66 63 62 63 64 64 63
95 92 89 85 81 79 78 77 76 76 77 77 79 78 75 71 70 70 69 67 67 68 68 66 67 66 66 67 67 67 67 70 70 65 61 58 56 54 56 57 58 59 58
84 81 79 74 73 72 71 68 68 68 68 70 71 70 68 66 65 64 62 59 57 59 61 60 60 59 60 60 60 61 62 63 61 58 55 51 50 49 51 50 51 52 51
76 76 74 71 68 66 64 63 62 61 60 60 61 61 58 58 59 57 55 54 51 50 52 52 51 51 51 52 52 53 55 54 50 48 47 47 45 45 43 43 42 43 44
69 66 65 64 61 59 58 56 55 54 53 53 54 54 52 50 49 49 48 46 45 44 43 43 44 44 43 43 44 44 44 44 42 41 40 39 38 37 37 37 37 38 38
56 54 54 53 51 51 50 49 47 46 46 45 46 45 43 42 42 42 41 41 40 39 38 38 38 37 37 37 38 38 38 37 37 37 35 34 33 32 32 31 32 32 33
47 46 45 44 43 42 42 42 40 39 40 40 39 38 37 37 36 36 35 34 34 34 34 33 32 31 31 31 32 33 33 33 32 31 30 29 29 28 28 28 28 28 28
41 40 39 38 38 37 36 35 34 34 33 33 33 33 32 31 31 30 29 28 28 28 28 28 27 27 26 27 27 27 27 27 27 26 26 25 25 25 25 25 25 25 25
37 35 33 32 31 30 30 30 30 30 30 29 29 28 27 26 25 25 24 24 24 24 23 23 22 22 22 22 22 22 23 23 22 22 22 21 21 21 21 21 21 21 22
Wind_Direction
288 288 288 288 288 290 291 292 293 293 295 295 296 295 294 293 292 291 289 287 286 284 283 283 282 281 281 280 280 280 279 279 279 276 272 269 267 264 258 257 258 259 259
291 292 293 294 294 293 295 296 295 295 296 297 297 298 298 297 297 297 296 295 292 289 288 288 287 286 285 283 284 284 283 281 279 277 273 270 268 266 264 262 259 257 257
298 299 301 297 293 295 295 295 295 295 295 295 295 295 296 296 297 297 298 296 294 294 295 293 292 290 287 287 286 285 284 284 283 281 280 276 272 269 267 265 261 259 259
296 295 295 295 296 297 297 296 297 294 294 294 293 293 293 292 292 293 293 293 292 292 293 292 292 291 290 289 289 288 286 284 282 281 280 280 278 276 272 267 266 266 262
293 293 292 293 293 292 292 293 292 291 291 292 292 293 292 290 291 290 290 289 290 290 289 288 290 291 290 289 288 286 285 284 283 282 280 278 277 276 275 274 272 270 266
291 291 290 290 291 291 290 290 290 290 290 289 289 289 288 288 288 288 287 286 286 287 287 288 288 288 288 286 286 286 282 280 280 280 279 278 278 275 274 274 273 273 273
292 293 292 291 290 289 289 289 289 288 289 288 288 287 287 286 286 285 285 284 283 283 284 284 284 284 283 283 283 283 282 279 277 277 276 275 275 275 274 274 273 272 270
290 290 291 291 290 290 290 289 288 288 287 286 286 286 286 286 285 284 284 283 283 282 281 281 280 281 281 281 281 282 281 279 275 274 274 274 273 273 272 271 271 270 271
291 291 290 290 290 289 287 287 288 288 288 287 287 287 287 286 285 283 282 281 281 281 280 280 280 280 281 281 280 279 277 276 274 273 272 271 271 271 270 269 267 267 267
289 289 287 287 287 287 287 287 287 287 287 287 286 286 286 285 283 282 280 280 280 280 280 279 279 279 280 279 278 277 276 275 273 271 271 270 269 268 268 268 268 268 268
286 287 287 287 287 288 288 287 287 287 288 287 287 286 284 283 283 281 280 279 279 278 278 278 278 277 278 277 277 275 273 272 272 271 271 271 270 268 268 269 268 267 267
285 286 286 287 286 286 285 285 285 285 286 286 285 283 281 280 280 280 279 278 277 277 277 278 277 277 276 275 274 272 272 272 271 271 271 270 269 269 268 268 267 267 268
286 287 286 286 286 286 285 284 284 284 284 284 284 283 283 282 281 280 280 280 279 278 278 277 276 276 275 274 273 273 271 270 270 269 269 269 269 270 272 273 274 274 275
286 285 285 285 284 283 282 282 282 282 282 283 283 283 283 282 281 281 281 281 280 279 278 277 276 275 274 273 273 272 272 270 269 269 270 272 273 274 276 277 278 277 276
286 285 284 284 284 284 283 282 283 283 283 284 284 283 282 281 281 281 281 282 280 279 278 277 275 273 272 272 271 271 271 272 273 273 274 273 274 275 275 273 272 273 273
289 288 286 286 286 286 284 283 283 282 282 282 281 280 280 280 280 280 280 280 280 278 279 278 278 277 276 274 273 273 272 273 273 273 273 273 272 272 272 272 271 271 269
287 286 286 286 285 285 285 285 284 284 284 283 282 281 279 278 279 280 280 280 279 280 280 279 279 279 279 278 277 277 275 274 273 272 270 270 270 270 271 272 270 267 266
288 287 285 284 284 285 287 287 286 285 284 283 281 280 281 280 280 280 280 281 282 282 279 279 279 279 279 278 278 277 275 275 274 274 273 273 272 271 271 270 268 267 266
290 289 289 289 290 287 286 285 284 283 282 281 282 283 283 284 283 282 282 282 283 282 280 278 278 278 277 276 276 276 276 275 276 278 278 278 275 271 268 266 267 266 265
289 288 287 288 287 287 287 285 283 283 282 282 283 284 285 286 284 283 283 282 281 280 280 278 277 277 276 277 276 275 274 275 276 275 275 273 270 267 266 266 264 263 261
289 289 292 292 290 289 288 288 286 285 284 284 284 285 285 284 283 282 282 282 281 279 276 277 277 276 275 273 273 273 273 275 276 275 273 272 270 268 264 263 263 262 261
291 290 290 290 290 290 289 289 288 288 287 286 284 284 284 284 284 284 284 283 281 279 278 276 275 274 274 273 271 272 272 272 272 270 269 268 267 266 265 262 261 260 260
292 291 291 291 290 290 289 289 290 290 288 286 286 287 287 286 285 284 283 282 282 280 279 277 275 275 274 274 272 271 271 271 271 270 270 269 268 266 264 262 260 258 257
294 293 293 293 294 294 295 295 294 292 291 290 289 289 288 286 284 283 281 280 279 279 280 281 281 279 276 275 274 273 272 271 270 270 269 268 267 266 264 262 260 258 256
298 300 301 300 299 298 297 296 294 291 289 288 288 287 286 285 284 284 284 284 284 284 283 282 281 280 278 277 275 274 272 271 271 269 269 268 266 262 260 259 258 255 252
305 303 303 301 300 299 299 299 298 297 296 294 292 292 291 291 291 291 290 289 288 287 286 285 283 281 277 275 272 271 270 269 268 267 266 264 261 257 254 252 250 248 246
Height
10583 10580 10577 10574 10571 10567 10564 10560 10557 10553 10549 10546 10543 10540 10538 10535 10533 10531 10530 10528 10526 10524 10522 10521 10521 10519 10519 10518 10517 10517 10517 10517 10516 10520 10523 10524 10525 10526 10527 10526 10526 10525 10524
10570 10566 10563 10559 10556 10553 10550 10546 10542 10539 10535 10531 10527 10524 10521 10518 10515 10513 10511 10509 10507 10506 10504 10501 10501 10499 10498 10498 10497 10496 10495 10496 10495 10495 10499 10503 10503 10504 10504 10505 10505 10504 10504
10556 10552 10549 10545 10542 10538 10535 10531 10527 10524 10520 10516 10512 10509 10506 10503 10500 10497 10493 10490 10488 10486 10484 10482 10481 10480 10478 10478 10478 10477 10476 10476 10475 10471 10469 10473 10475 10478 10480 10480 10480 10480 10480
10541 10537 10532 10529 10527 10522 10517 10513 10509 10505 10500 10498 10495 10491 10488 10484 10482 10479 10477 10473 10470 10466 10462 10459 10457 10456 10455 10454 10454 10453 10454 10453 10453 10452 10448 10446 10447 10449 10453 10454 10454 10456 10455
10521 10517 10510 10509 10507 10503 10499 10495 10489 10484 10479 10477 10473 10471 10467 10463 10460 10457 10454 10451 10448 10444 10441 10437 10434 10432 10429 10427 10426 10426 10426 10425 10425 10425 10425 10424 10420 10422 10425 10426 10425 10426 10428
10500 10495 10489 10486 10484 10480 10476 10472 10467 10461 10456 10453 10449 10445 10441 10438 10434 10432 10430 10427 10422 10418 10414 10412 10409 10406 10404 10402 10400 10397 10396 10394 10393 10393 10392 10392 10391 10392 10395 10396 10396 10395 10395
10477 10470 10465 10462 10459 10454 10450 10446 10440 10437 10433 10426 10421 10417 10413 10407 10404 10404 10401 10399 10394 10390 10386 10383 10380 10375 10374 10372 10369 10367 10362 10360 10358 10358 10359 10357 10358 10356 10360 10360 10363 10365 10365
10450 10443 10436 10432 10428 10422 10418 10413 10408 10405 10402 10397 10390 10386 10382 10375 10370 10369 10368 10367 10363 10356 10353 10350 10346 10340 10339 10339 10337 10333 10327 10323 10319 10321 10323 10320 10321 10318 10320 10322 10324 10325 10331
10419 10412 10405 10399 10394 10387 10382 10377 10371 10366 10362 10359 10355 10349 10345 10339 10332 10330 10330 10330 10328 10322 10316 10312 10309 10303 10297 10298 10298 10292 10289 10281 10277 10282 10285 10282 10279 10277 10276 10280 10281 10285 10293
10387 10380 10372 10367 10361 10353 10346 10340 10333 10326 10323 10319 10315 10309 10305 10300 10288 10286 10287 10288 10287 10281 10275 10271 10266 10263 10257 10253 10253 10251 10248 10237 10237 10237 10239 10239 10238 10236 10233 10234 10237 10243 10247
10352 10344 10336 10330 10321 10312 10307 10299 10293 10285 10279 10274 10270 10267 10260 10255 10246 10238 10237 10243 10242 10239 10234 10226 10221 10218 10217 10210 10205 10204 10202 10198 10195 10195 10193 10193 10192 10193 10190 10190 10193 10197 10203
10317 10310 10300 10293 10284 10276 10268 10259 10252 10243 10237 10230 10225 10220 10215 10207 10199 10194 10191 10191 10194 10198 10193 10184 10177 10172 10168 10166 10163 10159 10156 10155 10155 10155 10155 10152 10147 10144 10142 10145 10145 10151 10161
10276 10268 10261 10252 10242 10233 10225 10215 10206 10195 10188 10182 10175 10172 10165 10158 10155 10147 10143 10142 10145 10149 10146 10141 10137 10131 10125 10119 10116 10117 10117 10116 10113 10111 10111 10111 10105 10103 10103 10102 10105 10113 10124
10236 10226 10215 10208 10200 10189 10181 10171 10161 10153 10144 10139 10134 10129 10125 10118 10110 10103 10100 10101 10102 10100 10101 10104 10100 10094 10088 10083 10080 10075 10074 10075 10075 10074 10073 10076 10075 10070 10071 10071 10073 10072 10083
10193 10181 10169 10159 10151 10145 10135 10127 10119 10112 10105 10100 10094 10089 10085 10081 10072 10065 10065 10061 10063 10062 10061 10062 10061 10057 10052 10051 10049 10045 10040 10038 10038 10039 10041 10040 10040 10039 10040 10039 10037 10038 10045
10149 10136 10123 10111 10102 10095 10092 10090 10078 10073 10068 10060 10056 10052 10047 10044 10036 10031 10032 10030 10028 10024 10026 10025 10022 10019 10020 10018 10016 10013 10011 10008 10007 10007 10006 10005 10007 10006 10006 10006 10007 10006 10010
10098 10093 10086 10075 10066 10057 10050 10045 10046 10036 10030 10027 10018 10014 10014 10015 10005 10003 10001 10000 9998 9996 9995 9992 9991 9986 9984 9983 9982 9983 9980 9974 9975 9975 9976 9976 9976 9977 9978 9978 9976 9977 9982
10059 10052 10046 10041 10033 10027 10021 10015 10008 10005 9999 9988 9983 9983 9982 9983 9981 9977 9972 9972 9971 9968 9967 9966 9963 9960 9957 9953 9952 9952 9949 9946 9944 9946 9948 9949 9951 9953 9953 9952 9949 9951 9955
10026 10017 10010 10005 10002 9995 9990 9985 9980 9975 9971 9966 9956 9951 9952 9957 9956 9950 9949 9950 9948 9943 9939 9940 9937 9936 9933 9929 9928 9927 9925 9921 9920 9923 9925 9926 9926 9928 9927 9926 9926 9929 9933
9995 9986 9980 9979 9973 9967 9962 9959 9955 9952 9946 9941 9935 9931 9930 9931 9930 9928 9927 9927 9926 9922 9918 9916 9913 9912 9910 9909 9907 9906 9903 9901 9902 9902 9903 9905 9905 9907 9906 9908 9910 9911 9915
9968 9961 9956 9953 9949 9945 9940 9935 9931 9928 9925 9920 9915 9912 9913 9911 9907 9907 9905 9904 9905 9903 9899 9897 9895 9894 9892 9889 9888 9886 9884 9883 9885 9886 9886 9887 9889 9889 9892 9893 9894 9895 9897
9948 9943 9937 9932 9927 9923 9919 9916 9912 9908 9905 9901 9898 9895 9895 9893 9890 9887 9886 9884 9883 9882 9881 9880 9878 9876 9875 9873 9871 9869 9868 9868 9869 9870 9871 9873 9874 9875 9876 9877 9879 9881 9883
9929 9924 9919 9914 9910 9905 9901 9898 9894 9891 9887 9884 9881 9878 9877 9875 9873 9871 9869 9867 9866 9865 9864 9863 9862 9861 9859 9857 9856 9855 9855 9855 9855 9856 9857 9859 9860 9861 9862 9863 9865 9867 9869
9912 9908 9902 9898 9894 9890 9886 9882 9879 9876 9872 9870 9867 9865 9863 9861 9859 9857 9856 9855 9853 9852 9850 9849 9848 9847 9846 9845 9843 9843 9843 9843 9843 9844 9845 9846 9848 9849 9850 9852 9854 9856 9858
9897 9892 9888 9884 9880 9877 9873 9870 9867 9864 9861 9859 9856 9854 9852 9850 9848 9846 9844 9843 9842 9841 9840 9839 9838 9836 9835 9834 9833 9833 9832 9832 9833 9834 9835 9837 9838 9840 9841 9843 9845 9846 9848
9883 9880 9876 9873 9870 9866 9863 9859 9856 9853 9850 9848 9846 9844 9842 9840 9838 9836 9834 9834 9833 9832 9830 9829 9828 9828 9827 9826 9825 9825 9825 9825 9826 9826 9827 9829 9830 9832 9833 9835 9837 9839 9841